Weather History for Norfolk, NE

Change the Weather History Date:

Sunday, July 15, 2012

  Actual Average Record
Temperature  
Mean Temperature 83 °F 75 °F  
Max Temperature 99 °F 87 °F 108 °F (1936)
Min Temperature 67 °F 64 °F 48 °F (1912)
Degree Days  
Heating Degree Days 0 0  
Month to date heating degree days 0 0  
Since 1 June heating degree days 16 30  
Since 1 July heating degree days 0 0  
Cooling Degree Days 18 10  
Month to date cooling degree days 245 148  
Year to date cooling degree days 678 395  
Since 1 June cooling degree days 526 334  
Growing Degree Days 32 (Base 50)    
Moisture  
Dew Point 64 °F    
Average Humidity 58    
Maximum Humidity 87    
Minimum Humidity 29    
Precipitation  
Precipitation 0.00 in 0.11 in 1.80 in (1989)
Month to date precipitation T 1.68  
Year to date precipitation 10.85 15.64  
Snow  
Snow 0.00 in 0.00 in - ()
Month to date snowfall 0.0 0.0  
Since 1 July snowfall 0.0 0.0  
Snow Depth 0.00 in    
Sea Level Pressure  
Sea Level Pressure 29.91 in    
Wind  
Wind Speed 12 mph (SE)    
Max Wind Speed 23 mph    
Max Gust Speed 32 mph    
Visibility 10 miles    
Events      
T = Trace of Precipitation, MM = Missing Value Source: NWS Daily Summary

Daily Weather History Graph

Daily Weather History Graph

Search for Another Location

Airport:

Trip Planner

Search our weather history database for the weather conditions in past years. The results will help you decide how hot, cold, wet, or windy it might be!

Date:

Astronomy

Jul. 15, 2012 Rise Set
Actual Time 6:07 AM CDT 9:03 PM CDT
Civil Twilight 5:34 AM CDT 9:36 PM CDT
Nautical Twilight 4:52 AM CDT 10:18 PM CDT
Astronomical Twilight 4:03 AM CDT 11:07 PM CDT
Moon 3:05 AM CDT (7/15) 6:21 PM CDT (7/15)
Length of Visible Light 16h 01m
Length of Day
14h 55m
Waning Crescent, 11% of the Moon is Illuminated
Jul 15
Waning Crescent
Jul 18
New
Jul 26
First Quarter
Aug 1
Full
Aug 9
Last Quarter

Hourly Weather History & Observations

Time (CDT) Temp. Heat Index Dew Point Humidity Pressure Visibility Wind Dir Wind Speed Gust Speed Precip Events Conditions
12:56 AM 73.9 °F - 64.0 °F 71% 29.97 in 10.0 mi SE 6.9 mph - N/A   Clear
1:56 AM 73.0 °F - 64.9 °F 76% 29.97 in 10.0 mi ESE 5.8 mph - N/A   Clear
2:56 AM 70.0 °F - 64.9 °F 84% 29.97 in 10.0 mi SE 6.9 mph - N/A   Clear
3:56 AM 70.0 °F - 64.9 °F 84% 29.95 in 10.0 mi SE 6.9 mph - N/A   Clear
4:56 AM 68.0 °F - 64.9 °F 90% 29.96 in 8.0 mi ESE 6.9 mph - N/A   Clear
5:56 AM 68.0 °F - 64.0 °F 87% 29.95 in 8.0 mi SE 5.8 mph - N/A   Clear
6:56 AM 69.1 °F - 64.0 °F 84% 29.96 in 8.0 mi ESE 8.1 mph - N/A   Clear
7:56 AM 71.1 °F - 64.9 °F 81% 29.97 in 9.0 mi ESE 6.9 mph - N/A   Clear
8:56 AM 78.1 °F - 64.0 °F 62% 29.96 in 10.0 mi SE 9.2 mph - N/A   Clear
9:56 AM 84.0 °F 85.4 °F 64.0 °F 51% 29.96 in 10.0 mi SE 10.4 mph - N/A   Clear
10:56 AM 89.1 °F 90.0 °F 63.0 °F 42% 29.94 in 10.0 mi SE 11.5 mph - N/A   Clear
11:56 AM 95.0 °F 97.0 °F 64.0 °F 36% 29.93 in 10.0 mi SSE 17.3 mph - N/A   Clear
12:56 PM 97.0 °F 98.3 °F 63.0 °F 32% 29.91 in 10.0 mi SE 16.1 mph - N/A   Clear
1:56 PM 99.0 °F 101.7 °F 64.0 °F 32% 29.90 in 10.0 mi SSE 18.4 mph 23.0 mph N/A   Clear
2:56 PM 98.1 °F 99.6 °F 63.0 °F 31% 29.89 in 10.0 mi SSE 18.4 mph 27.6 mph N/A   Clear
3:56 PM 98.1 °F 98.6 °F 61.0 °F 29% 29.87 in 10.0 mi South 19.6 mph 25.3 mph N/A   Clear
4:56 PM 98.1 °F 99.1 °F 62.1 °F 30% 29.86 in 10.0 mi SSE 18.4 mph 26.5 mph N/A   Clear
5:56 PM 97.0 °F 97.8 °F 62.1 °F 31% 29.84 in 10.0 mi SSE 20.7 mph 26.5 mph N/A   Clear
6:56 PM 95.0 °F 96.0 °F 63.0 °F 34% 29.84 in 10.0 mi South 16.1 mph - N/A   Clear
7:56 PM 91.9 °F 93.3 °F 64.0 °F 39% 29.84 in 10.0 mi SSE 11.5 mph - N/A   Clear
8:56 PM 87.1 °F 89.2 °F 66.0 °F 49% 29.84 in 10.0 mi SSE 10.4 mph - N/A   Clear
9:56 PM 84.9 °F 86.6 °F 64.9 °F 51% 29.84 in 10.0 mi SE 9.2 mph - N/A   Clear
10:56 PM 82.9 °F 84.4 °F 64.0 °F 53% 29.86 in 10.0 mi SSE 12.7 mph - N/A   Clear
11:56 PM 81.0 °F 82.2 °F 63.0 °F 54% 29.86 in 10.0 mi SSE 11.5 mph - N/A   Clear